Location: Sabalos
(43.2860°N, 0.1414°E)
Time: 09:40:04
(UTC+00:00)

IGS 5A - Pass Details

Date: 05 July 2020
Orbit: 582 x 589 km, 97.6° (Epoch: 27 July)

Event Time Altitude Azimuth Distance (km) Brightness Sun altitude
Exits shadow 20:35:35 11° 140° (SE) 1,860 5.3 -8.5°
Maximum altitude 20:39:20 40° 71° (ENE) 874 4.1 -9.0°
Drops below altitude 10° 20:43:13 10° 2° (N) 1,920 6.7 -9.5°
Sets 20:45:28 0° 355° (N) 2,824 7.8 -9.8°
